Location: Moy Burn
(57.3833°N, 4.0667°W)
Time: 10:14:49
(UTC+00:00)

Cosmos 2322 - Pass Details

Date: 08 August 2020
Orbit: 842 x 853 km, 71.0° (Epoch: 18 September)

Event Time Altitude Azimuth Distance (km) Brightness Sun altitude
Rises 23:17:41 0° 323° (NW) 3,419 8.2 -15.6°
Reaches altitude 10° 23:20:08 10° 323° (NW) 2,479 7.2 -15.7°
Maximum altitude 23:25:50 83° 236° (WSW) 858 3.7 -15.9°
Enters shadow 23:29:21 24° 151° (SSE) 1,674 4.7 -16.0°
